Location: ????? ??????
(37.8317°N, 23.8750°E)
Time: 13:26:22
(UTC+00:00)

Cosmos 1939 Rocket - Pass Details

Date: 20 January 2021
Orbit: 531 x 585 km, 97.4° (Epoch: 03 March)

Event Time Altitude Azimuth Distance (km) Brightness Sun altitude
Rises 16:01:18 0° 152° (SSE) 2,794 6.3 -5.7°
Reaches altitude 10° 16:03:31 10° 146° (SE) 1,897 5.4 -6.1°
Maximum altitude 16:07:26 44° 74° (ENE) 813 3.2 -6.8°
Drops below altitude 10° 16:11:20 10° 2° (N) 1,894 5.3 -7.5°
Sets 16:13:33 0° 356° (N) 2,789 6.3 -7.9°
